FENGYUN 1C DEB

Satellite information

Favourite Embed

Satellite Type and Status

DEBRISIN ORBIT

Key statistics

Satellite FENGYUN 1C DEB at a glance.

Uptime

9554

Days in orbit

Revolutions

≈ 14.4

Per day

Orbit

SSO

Sun Synchronous Orbit

Inclination

98.9

Latest

Satellite identification and parameters

Extended collection of information and parameters for FENGYUN 1C DEB.

Object identification

Identified? True

Debris? True

Object name: FENGYUN 1C DEB

International designator: 1999-025DKH

Object number (NORAD): 35105

Object ID (CCSDS): 35105

Country: PEOPLES REPUBLIC OF CHINA (PRC)

Current information (Y/N): Y

RCS size: SMALL

Orbital parameters

Period: 99.665 minutes

Inclination: 98.9224 deg

SMA: 7120.666 km

Apoapsis: 822.775 km

Periapsis: 662.288 km

RAAN: 157.3162 deg

Eccentricy: 0.0112691

Argument of periapsis: 176.9857 deg

Mean anomaly: 183.2037 deg

Mean motion: 14.44846824 rev/day

Mean motion (dot): 0.00000578 rev/day2

B* drag term: 0.00016787 1/REarth

Two-line elements (TLE)

Creation date: July 4, 2025, 3:20 a.m.

Reference frame: TEME

Reference center: EARTH

Epoch: July 3, 2025, 3:27 p.m. UTC

TLE line 0: 0 FENGYUN 1C DEB

TLE line 1: 1 35105U 99025DKH 25184.64409921 .00000578 00000-0 16787-3 0 9996

TLE line 2: 2 35105 98.9224 157.3162 0112691 176.9857 183.2037 14.44846824921526

Live tracking on map

Real-time ground track for satellite FENGYUN 1C DEB.

In-orbit conjunctions

A list of the most updated potential collisions computed for object FENGYUN 1C DEB.

Target Orbit TCA Probability of collision Miss distance Type
FENGYUN 1C DEB SSO 2025-05-25 07:48:08 0.0002434299 113.0 (m) DEBRIS
SL-8 R/B LEO 2025-02-01 01:08:14 0.0001583554 574.0 (m) ROCKET BODY
NOAA 16 DEB SSO 2024-09-28 11:37:51 0.0001811282 141.0 (m) DEBRIS

Associated space launch

Chinese polar orbiting meteorological satellite

FENGYUN 1C DEB was lifted into orbit during the mission ‘Long March 4B | Feng Yun 1C’, on board a Long March 4B space rocket.

The launch took place on May 10, 1999, 1:33 a.m. from Launch Complex 7.

For more information about the launch, click the button.

Launch to space Long March 4B | Feng Yun 1C
Long March 4B | Feng Yun 1C

Agency: N/A

Status: Launch Successful

Launch date: May 10, 1999, 1:33 a.m. UTC

Rocket: Long March 4B

Launch pad: Launch Complex 7

Location: Taiyuan Satellite Launch Center, People's Republic of China

...

Latest news about this satellite

There are no fresh news available about this satellite. Check back as we update our databases every day.


Newsletter sign-up

Weekly statistics, charts and insights to help you stay on top of the space industry.